Wind_Speed
23 18 15 13 10 8 5 5 7 7 11 13 13 13 11 10 9 8 9 9 10 10 9 9 9 9 9 8 7 5 5 4 3 2 3 3 2 2 2 3 7 8 6 5 6 7 8 7 6 7 8 8 8 8 9 9 10 11 12 12 13 13 15 16 17 18 18 19 20 21 22 23 24 25 26 26 27 28 29 30 31 32 32 33 34 35
23 19 15 12 9 7 5 5 5 7 12 13 13 14 11 8 7 8 9 8 10 10 8 9 8 8 8 7 6 5 5 5 4 2 2 2 3 3 3 5 8 9 8 7 7 8 7 7 7 8 8 8 8 9 9 9 9 10 11 12 13 15 16 17 17 17 19 20 21 23 24 25 26 27 28 28 29 30 31 31 31 32 32 33 34 36
20 18 14 9 6 5 4 5 7 11 14 13 13 13 10 8 7 8 8 8 9 9 8 8 7 6 7 6 5 5 5 4 3 2 1 1 3 4 6 7 8 8 7 7 8 7 7 8 8 8 8 8 8 8 9 9 10 11 13 14 15 16 16 17 19 20 22 23 24 25 26 27 28 29 30 30 30 30 30 30 31 31 32 33 34 36
18 15 11 9 6 4 4 7 11 15 15 14 14 12 9 8 8 8 9 10 10 9 7 7 6 6 6 5 4 4 4 3 3 2 3 3 4 5 7 8 7 7 7 7 7 7 7 8 8 7 7 8 8 8 9 10 12 13 14 15 16 17 18 20 22 23 25 26 27 29 30 30 30 30 29 29 29 29 30 31 33 34 34 35 35 36
17 13 10 9 7 4 5 10 15 17 16 15 14 12 9 8 8 9 9 10 9 8 8 7 5 4 5 5 4 3 2 2 2 3 4 5 5 6 7 7 7 7 7 7 7 7 7 8 8 8 8 8 8 10 11 13 14 15 15 16 18 20 21 22 24 25 25 27 28 29 29 29 29 29 29 30 31 32 34 36 37 38 39 39 38 38
16 12 11 10 8 5 7 14 17 17 16 15 14 13 12 9 8 8 8 8 8 7 7 7 5 5 5 6 5 4 3 3 4 5 6 6 6 6 7 7 7 7 6 5 6 7 7 8 9 9 9 9 11 12 13 14 15 16 17 19 21 22 23 24 25 26 27 28 29 29 30 31 32 33 34 35 36 38 39 40 41 42 42 41 40 40
18 13 12 13 11 9 12 18 18 16 15 15 15 15 14 10 7 7 7 7 7 7 8 8 8 7 6 7 8 7 8 9 9 10 9 8 8 8 8 6 6 6 5 5 6 7 8 9 9 9 10 11 12 13 14 15 17 18 19 21 22 24 25 26 27 29 31 32 33 34 35 36 37 38 39 40 40 40 41 41 42 43 43 43 42 42
20 15 14 16 16 14 17 20 19 16 16 16 15 14 12 12 10 8 7 6 7 9 10 11 11 9 8 9 10 11 12 13 13 12 10 9 9 8 7 5 6 6 7 7 8 9 9 9 10 10 11 12 13 14 15 17 18 19 21 22 24 25 26 28 30 32 34 36 37 38 39 40 41 42 43 43 43 42 42 42 42 44 45 45 45 45
21 17 16 18 17 17 19 19 18 17 17 17 15 12 10 11 10 8 8 8 9 11 11 12 13 11 9 10 11 12 13 14 14 13 11 10 9 7 6 6 7 8 9 9 9 9 9 9 10 11 11 13 14 16 16 18 19 21 23 24 25 27 28 31 33 35 37 38 39 39 40 42 43 44 44 45 44 44 43 43 44 46 48 49 49 48
23 20 19 18 16 17 20 17 17 19 18 17 14 8 9 10 9 9 9 9 9 11 12 12 12 10 9 10 10 11 13 13 13 12 11 9 8 8 8 9 9 9 9 9 9 9 9 10 10 11 12 14 15 16 17 19 21 22 24 25 27 29 31 33 34 36 38 39 41 41 42 43 44 45 46 47 47 47 46 46 47 49 51 52 52 52
25 22 19 18 16 18 19 16 16 19 20 19 13 8 12 12 11 12 11 9 9 11 11 11 10 9 9 9 9 10 11 11 11 10 9 9 10 10 11 11 10 9 9 9 9 9 10 10 11 12 13 14 15 17 18 20 21 22 25 27 29 31 32 34 35 37 39 41 42 43 44 45 46 47 48 49 50 50 50 50 51 52 54 54 54 54
25 23 20 20 19 19 20 18 18 20 21 18 12 13 16 14 13 13 12 10 10 10 11 11 10 8 7 7 8 8 9 10 9 9 10 12 13 13 12 11 9 9 9 9 9 9 10 10 12 13 14 15 16 18 20 21 22 24 26 29 30 32 33 35 37 39 41 42 43 44 45 46 48 49 50 51 52 52 52 52 53 54 55 56 56 55
23 23 22 21 22 22 20 21 20 20 22 18 15 18 19 15 14 14 12 11 10 10 10 10 10 8 7 6 6 8 9 10 11 11 12 13 14 13 11 10 9 8 8 9 9 9 10 10 12 13 14 15 16 18 20 22 24 26 28 29 30 32 34 36 38 40 42 43 45 45 46 48 50 51 51 52 53 53 53 54 54 56 56 57 57 57
22 22 22 22 24 23 21 23 22 21 23 19 18 22 19 16 17 15 13 11 9 10 10 8 8 7 7 6 6 8 10 12 12 12 13 13 13 12 10 9 8 8 8 8 8 9 9 10 11 13 15 16 17 19 21 23 25 26 28 29 31 33 35 37 39 41 43 45 46 47 48 50 51 52 52 53 54 54 54 55 56 57 57 57 58 59
25 23 21 20 24 24 22 25 25 23 24 19 19 22 17 17 19 16 14 12 10 11 10 8 8 8 7 7 7 9 10 12 12 12 13 12 11 10 8 7 7 7 7 7 8 8 9 10 12 14 16 18 19 21 23 24 25 26 27 29 32 34 36 38 41 43 45 47 48 48 49 51 52 53 53 54 55 56 56 57 58 58 58 59 60 62
28 25 22 20 23 25 24 28 26 24 24 20 20 21 16 17 18 15 15 14 11 11 10 9 7 7 7 7 7 8 9 10 11 12 12 10 8 7 7 6 5 6 6 7 7 8 9 10 12 14 15 17 19 21 22 23 24 26 28 31 33 36 37 40 42 44 46 48 49 50 51 52 53 54 55 56 57 58 58 59 60 60 60 61 63 64
31 29 25 23 25 25 25 28 27 24 24 21 21 21 18 18 16 12 14 15 12 10 10 9 7 6 7 7 7 8 8 9 10 11 10 8 6 5 4 4 4 5 5 6 6 7 9 11 13 14 16 17 18 19 21 23 25 28 30 33 35 37 39 41 43 45 47 49 50 51 52 53 54 55 57 58 59 59 60 61 62 62 63 64 65 67
33 32 29 27 27 26 25 28 28 25 24 22 21 21 19 19 15 11 13 15 13 11 10 9 8 7 8 8 8 8 7 8 9 9 8 6 5 4 3 3 3 4 4 5 6 8 9 11 14 16 17 18 19 20 23 26 28 30 33 34 36 38 40 43 45 46 48 50 52 53 53 54 55 57 58 59 60 61 61 62 64 64 65 66 67 68
32 33 32 30 29 27 26 28 29 26 24 22 21 20 18 17 15 12 13 14 12 11 11 10 8 8 10 10 9 9 8 9 9 8 6 5 4 3 2 2 3 3 4 4 6 8 9 11 13 15 18 20 21 23 26 28 31 33 34 36 37 39 41 44 46 47 49 51 53 54 54 55 57 58 59 60 61 62 63 64 65 65 66 67 68 69
32 33 32 30 29 28 27 28 31 28 25 22 21 19 17 16 15 13 14 13 11 11 12 11 8 9 11 11 10 9 9 9 8 6 4 3 2 1 0 1 3 3 4 5 6 8 10 13 14 15 18 21 23 26 28 30 32 34 35 37 39 40 42 45 47 48 50 52 54 54 55 56 58 59 60 61 62 64 64 65 66 66 67 68 69 70
30 31 31 30 28 27 28 29 31 30 26 23 21 20 17 16 16 15 14 13 12 11 11 10 8 9 10 10 9 9 10 9 7 5 4 3 2 2 2 3 4 5 5 5 6 8 11 15 17 19 20 22 24 26 29 31 33 35 36 38 40 41 43 46 48 50 52 54 55 55 56 57 59 60 61 62 63 64 65 66 67 67 68 69 70 71
27 27 28 28 26 26 28 31 30 30 29 25 21 20 18 17 17 17 16 15 14 13 11 11 10 9 9 9 9 9 9 9 8 6 5 4 3 4 4 5 6 6 6 6 7 8 11 14 17 19 21 23 25 28 30 32 34 36 37 39 41 43 45 47 49 51 53 54 55 56 57 59 60 61 62 63 65 66 66 67 68 68 68 69 70 71
25 25 27 28 28 27 28 30 30 29 30 27 23 21 20 18 18 19 17 16 15 14 13 12 11 10 9 9 9 9 10 9 9 8 6 5 4 6 7 7 8 8 8 8 9 10 12 15 17 20 22 25 27 30 32 34 35 37 39 41 43 44 46 48 50 52 54 55 56 57 58 60 61 62 63 64 66 66 67 68 68 68 68 68 69 71
22 23 27 30 31 29 27 28 29 30 30 29 26 25 23 21 20 20 19 17 16 16 15 14 12 11 10 10 10 9 9 9 10 10 8 6 6 8 9 10 10 10 10 11 12 13 15 18 20 22 25 27 30 32 34 36 38 40 41 43 44 46 47 49 51 53 54 55 56 57 59 61 62 63 64 65 66 67 68 68 68 68 67 68 69 70
19 22 28 32 33 30 26 27 29 31 32 30 29 27 25 23 23 22 21 19 18 17 16 15 14 13 12 11 10 9 9 9 11 11 10 9 9 10 11 12 12 13 13 13 14 16 18 20 22 25 27 30 33 35 36 38 40 41 43 44 45 47 48 50 52 54 55 56 57 58 60 62 63 64 65 66 67 67 68 68 68 67 67 67 69 70
20 22 26 31 34 31 27 28 31 33 33 31 30 28 26 25 25 24 22 20 19 18 17 16 16 15 13 12 10 10 10 11 12 13 12 12 12 12 12 13 14 15 15 16 16 18 19 22 24 27 29 32 35 36 38 40 41 42 44 45 46 47 49 51 53 54 55 57 58 59 61 62 63 65 65 66 67 68 68 68 67 67 66 67 68 70
20 20 23 27 32 33 30 31 34 34 33 31 30 29 27 26 25 24 22 21 21 19 17 17 17 16 15 13 11 12 14 14 14 14 14 14 14 14 14 15 15 16 17 18 19 20 22 24 26 28 31 33 36 37 39 40 42 43 44 46 47 48 50 52 54 55 56 57 59 60 62 63 64 65 66 66 67 67 68 68 67 66 66 67 68 70
21 21 22 24 29 33 33 35 36 35 33 32 31 30 28 26 26 24 22 22 21 20 19 19 18 17 17 15 14 14 17 18 17 16 16 16 16 15 15 17 17 17 18 19 21 22 24 25 27 30 32 35 37 38 40 42 43 44 45 46 48 49 51 53 54 55 57 58 59 60 62 63 64 65 66 66 67 67 68 68 67 66 66 67 68 69
22 23 23 24 27 30 33 37 39 37 34 32 32 31 29 27 26 25 23 22 22 21 21 21 20 20 19 18 16 16 18 19 18 17 17 18 18 17 17 19 19 19 20 21 22 23 25 27 29 31 33 36 38 40 42 43 44 45 46 48 49 50 52 53 55 56 57 58 60 61 62 63 65 66 66 67 67 67 68 67 65 65 66 67 68 69
22 24 25 25 26 29 33 38 40 38 35 33 32 31 28 27 27 26 24 23 22 22 23 23 22 22 22 21 19 19 19 19 19 19 19 20 20 19 19 21 22 22 22 23 24 25 26 28 30 32 35 37 39 41 43 44 45 46 47 49 50 51 53 54 55 56 58 59 60 61 62 64 65 65 66 67 67 67 67 66 64 64 65 67 69 70
24 26 27 27 28 30 33 38 40 38 35 33 32 31 29 27 26 27 26 24 22 23 25 24 23 23 24 23 22 22 22 22 22 22 22 22 21 20 21 23 24 24 25 26 26 27 28 30 32 34 36 38 40 42 43 44 45 46 48 49 51 52 53 55 56 57 58 59 60 61 62 64 65 65 65 66 67 67 66 64 63 63 65 67 69 71
26 27 29 29 29 30 33 36 39 39 36 34 32 31 29 28 27 27 27 25 23 24 25 26 25 24 25 24 24 23 24 24 24 23 24 24 23 22 22 24 25 26 27 27 28 29 30 32 33 36 37 39 41 42 44 45 46 47 49 50 51 53 54 55 56 57 58 59 60 61 63 64 65 65 65 66 66 66 64 63 62 63 65 66 69 70
27 28 30 30 29 30 32 35 39 40 38 35 32 29 27 28 28 28 28 26 24 24 26 26 26 26 25 25 24 24 24 25 25 24 24 25 25 24 24 26 26 27 28 29 30 31 32 33 35 37 38 40 42 43 45 46 47 48 49 50 52 53 55 56 57 57 57 58 60 61 63 64 65 64 65 65 65 64 63 62 63 64 66 67 69 70
28 30 31 31 30 30 32 35 38 39 38 35 32 28 26 28 30 30 30 28 26 25 27 27 27 27 26 26 26 26 26 27 27 26 26 27 26 26 27 27 28 28 30 31 32 33 34 35 36 38 40 41 43 45 46 47 47 48 50 51 53 54 55 56 56 56 57 58 59 61 63 64 64 64 64 64 63 62 61 62 63 65 67 69 70 70
28 29 31 31 31 31 31 34 35 36 36 36 34 31 28 28 30 30 30 30 29 27 27 28 28 28 28 27 27 28 29 29 29 29 29 29 29 29 30 30 30 30 31 32 33 34 35 37 38 39 41 43 44 46 46 47 48 49 51 52 53 54 55 56 56 56 57 58 59 61 62 63 63 63 63 62 61 61 61 62 64 66 68 69 70 70
26 28 29 30 30 30 31 32 33 34 35 36 36 34 30 29 30 30 30 31 31 30 28 28 29 29 29 29 29 30 31 31 32 31 31 31 31 32 33 33 33 33 34 34 35 36 37 38 40 41 42 44 45 46 47 47 49 50 51 53 54 55 55 55 55 56 57 59 60 61 62 62 62 62 61 60 60 60 61 63 64 66 68 69 70 71
25 27 27 27 27 28 30 31 32 33 35 36 37 35 30 28 29 31 30 32 34 33 30 28 29 30 30 30 31 32 32 33 33 32 32 33 33 34 35 35 36 37 37 38 38 39 39 40 41 43 43 44 45 46 47 48 50 51 52 53 54 54 55 55 55 56 58 60 60 61 61 61 61 60 59 59 59 60 61 63 64 66 67 68 69 69
25 27 26 26 26 27 29 31 32 33 34 34 35 33 30 27 28 30 31 33 35 35 32 29 30 31 31 32 33 33 34 34 34 33 34 35 35 35 36 37 37 38 39 40 40 41 41 42 42 43 44 45 46 47 48 49 50 51 52 53 54 55 55 55 55 57 59 60 60 60 60 60 59 58 58 58 59 60 61 62 63 65 65 66 66 66
27 28 27 26 27 28 30 31 31 32 32 32 32 32 29 27 27 29 30 32 35 36 33 31 31 31 31 32 34 35 36 37 36 36 36 37 37 37 38 38 39 39 39 40 41 41 42 42 43 44 45 46 46 48 49 50 51 52 53 53 54 55 55 55 56 58 60 60 59 59 59 59 57 57 57 58 60 61 62 62 63 63 63 62 62 63
26 29 28 27 27 28 30 31 31 31 30 30 30 30 29 27 28 29 29 31 34 35 35 33 33 33 33 33 34 35 37 38 38 38 39 39 39 39 39 40 40 40 40 41 42 42 43 43 44 45 46 47 48 48 50 51 52 52 53 54 54 55 55 55 57 59 59 59 58 58 58 57 56 56 57 59 60 61 62 62 62 61 60 60 61 61
26 28 29 28 28 28 29 30 30 30 30 30 30 30 30 29 28 29 30 31 33 34 35 34 34 35 36 36 36 37 38 38 38 38 39 39 39 39 40 40 41 41 41 42 43 43 44 44 45 46 47 48 48 49 51 51 52 53 53 54 54 54 55 56 58 58 58 57 57 57 56 55 55 56 57 59 61 62 62 61 59 58 59 60 60 61
26 28 30 31 31 31 30 30 29 29 30 31 30 30 30 31 30 30 31 32 33 34 35 35 35 36 36 37 38 39 39 38 37 37 38 38 38 39 40 41 41 42 42 43 44 44 45 45 46 46 47 48 49 50 51 51 52 53 53 54 54 55 56 57 57 57 56 56 56 55 54 54 55 56 58 60 61 61 60 58 57 58 59 59 60 60
27 29 32 33 33 33 33 32 30 30 31 32 30 30 30 30 30 31 32 33 33 34 35 36 36 35 35 35 37 39 40 40 40 39 39 39 38 39 40 41 41 42 43 44 45 45 46 46 46 47 47 48 49 50 51 52 53 54 53 54 55 56 56 56 55 55 55 55 54 53 53 53 55 57 59 60 60 59 57 57 58 58 59 59 60 61
26 30 34 35 33 32 32 32 31 31 32 32 32 31 29 28 29 32 34 34 34 34 35 36 37 36 34 33 35 37 39 41 42 42 41 41 40 40 40 40 41 42 43 44 45 46 46 47 47 48 48 49 50 51 52 53 53 54 54 54 56 56 55 54 54 54 53 53 52 52 53 54 56 58 59 59 57 56 56 57 58 59 59 60 61 62
25 29 33 34 32 30 30 30 30 30 30 31 30 28 26 26 28 31 33 35 36 36 36 37 38 38 36 35 35 36 38 40 41 42 42 42 42 42 42 42 43 44 44 45 46 47 47 48 48 49 49 50 51 52 53 54 54 54 55 55 55 54 53 53 53 52 52 51 51 52 54 55 57 58 58 56 54 55 56 57 58 59 60 61 63 63
24 27 29 31 30 29 29 29 29 29 29 29 29 28 27 26 27 29 31 34 36 37 37 38 39 40 41 40 40 39 39 39 40 41 42 43 43 43 44 44 44 44 45 45 46 47 48 48 49 49 50 51 52 53 54 54 53 53 53 53 53 53 52 52 51 50 50 51 52 53 55 56 57 57 55 54 54 55 56 57 58 59 61 62 63 63
20 23 26 28 29 29 28 28 28 28 29 30 31 30 29 29 29 29 30 31 33 34 36 37 38 40 41 42 42 42 42 41 41 42 42 42 42 43 43 43 44 44 44 45 46 46 47 47 49 50 50 51 52 51 50 50 50 51 51 52 52 53 52 50 49 49 49 51 52 54 56 57 57 55 54 53 54 54 55 57 58 59 61 63 64 64
16 20 23 26 28 29 29 27 27 27 28 30 32 32 31 30 29 28 29 30 31 33 34 35 36 37 38 38 40 41 42 42 43 43 42 42 43 43 43 43 44 44 45 45 45 46 46 47 48 48 49 49 49 48 48 50 51 52 52 53 52 50 49 48 48 49 50 51 53 55 55 56 55 54 53 53 54 54 54 56 58 60 62 63 64 65
14 16 19 23 26 28 28 28 28 28 28 30 31 30 29 27 26 26 27 28 29 30 32 33 34 35 36 36 37 38 39 40 40 41 42 42 42 42 42 42 43 43 43 43 44 44 45 45 45 46 46 47 48 49 50 52 53 52 52 51 49 48 47 48 48 49 50 52 54 54 54 53 53 53 53 53 53 54 55 57 59 60 62 63 64 65
12 13 14 18 22 23 25 27 28 28 28 29 28 27 25 24 24 26 27 27 28 29 30 31 32 33 34 34 35 37 38 38 39 39 40 40 41 41 42 42 42 42 42 42 43 43 44 45 45 46 47 48 49 50 51 51 51 51 50 49 48 48 48 49 49 50 51 52 54 54 53 51 52 52 53 53 53 54 55 58 59 61 62 63 64 66
13 11 12 14 16 19 21 24 25 25 26 27 26 24 24 24 25 27 28 29 30 31 31 32 33 33 33 33 34 35 37 38 39 39 40 41 41 42 42 42 42 43 43 43 44 45 46 47 48 48 48 49 49 49 49 49 49 49 48 47 47 48 48 49 49 50 52 52 53 53 51 50 51 52 52 52 53 55 56 58 60 61 62 63 64 65
Wind_Direction
176 176 179 180 180 182 175 134 99 91 117 122 115 110 103 92 91 93 92 94 101 107 113 116 119 129 142 147 143 157 171 175 208 269 321 348 9 345 343 10 24 30 23 17 23 26 22 23 30 28 25 22 18 12 1 355 353 353 355 358 360 1 2 3 2 360 358 357 355 354 353 351 350 348 346 344 342 342 341 341 340 339 337 335 333 332
177 176 180 185 192 192 170 118 98 111 121 121 115 107 97 88 88 90 91 92 98 105 116 119 118 125 135 142 146 164 182 195 222 259 297 344 22 33 41 41 35 33 36 45 47 42 39 39 38 32 25 21 17 11 8 8 6 4 4 5 6 6 6 5 2 360 0 359 357 357 356 354 352 350 348 347 345 345 344 343 341 340 338 337 335 334
179 178 178 177 189 187 137 104 118 123 119 114 106 97 87 80 86 95 97 96 97 100 111 117 115 118 128 128 125 142 164 186 206 205 173 76 63 65 60 51 40 39 54 60 51 45 43 39 33 25 22 23 23 23 24 24 18 14 13 13 12 10 9 6 4 5 5 4 3 2 1 359 358 356 354 352 349 347 343 340 338 336 335 334 333 333
174 173 174 171 181 183 129 116 128 128 121 114 107 102 96 89 95 107 111 107 101 101 107 108 109 115 121 121 117 119 130 159 174 150 131 115 96 75 64 59 51 58 69 61 50 45 38 34 33 35 40 41 39 36 30 26 22 20 19 17 15 13 12 11 10 10 10 9 9 8 6 5 2 360 356 352 348 344 341 339 337 335 334 333 332 332
167 165 170 169 169 168 132 126 131 131 124 120 120 121 121 115 109 108 110 107 99 98 102 100 102 120 124 126 133 129 108 130 154 135 122 112 95 79 77 76 73 73 70 57 50 44 39 45 53 57 58 51 43 36 31 29 26 24 21 19 18 17 16 15 14 13 11 10 9 7 5 3 360 357 353 350 348 347 347 346 344 342 339 336 333 332
162 166 173 164 154 149 137 133 133 132 127 126 129 129 128 127 117 106 102 97 90 92 103 107 110 121 126 123 119 113 99 103 118 125 126 118 99 97 97 88 81 74 64 54 48 49 57 66 66 62 56 46 40 36 32 30 27 25 23 21 20 19 18 16 14 11 8 6 4 2 1 359 358 357 356 356 355 354 352 350 349 346 343 338 334 331
160 169 175 154 144 145 140 137 134 133 132 130 128 129 130 122 107 97 97 92 88 97 113 120 117 114 116 112 101 94 95 100 108 116 123 119 108 109 108 94 78 68 65 69 69 71 75 71 63 55 47 43 40 37 33 30 28 27 25 23 21 19 17 14 11 9 6 4 2 1 1 0 360 359 359 358 356 355 352 350 348 347 344 341 336 332
162 169 174 154 150 154 145 138 136 138 139 134 129 127 122 111 99 87 87 91 98 108 119 123 116 109 110 105 94 88 92 98 105 111 114 111 109 111 108 92 80 79 85 89 86 80 74 64 57 51 46 43 39 37 35 32 29 27 24 22 19 17 15 12 10 8 6 4 3 2 1 360 360 359 358 357 356 354 351 349 348 346 345 343 339 336
165 170 178 164 159 158 146 138 141 150 147 136 125 116 115 112 101 90 91 96 104 112 122 123 114 106 104 102 95 92 95 101 107 111 113 112 113 113 104 94 93 96 97 92 85 76 69 63 58 52 46 42 40 37 34 31 27 24 21 19 17 15 14 12 11 8 6 5 3 1 0 360 359 359 357 356 354 352 350 349 348 347 346 344 342 339
169 173 181 174 169 159 146 143 153 159 152 134 117 119 145 132 113 111 106 100 107 116 121 119 113 106 102 101 103 103 105 109 112 115 118 117 116 111 106 105 107 106 99 89 81 74 68 63 56 51 47 44 41 36 31 27 25 22 19 16 15 14 13 12 10 7 6 4 3 1 0 360 359 358 356 355 353 352 351 350 349 348 347 345 342 340
180 177 180 181 180 164 153 158 167 169 161 141 126 155 164 143 125 121 109 101 110 115 116 115 112 108 104 103 108 113 114 116 118 120 121 120 118 117 115 115 113 105 95 85 78 70 63 57 52 50 47 43 36 31 27 24 20 18 17 14 13 11 10 9 7 6 5 4 3 1 360 359 358 357 356 355 354 353 352 352 351 349 347 345 343 341
191 184 183 187 186 170 164 171 175 178 171 151 143 162 156 140 130 121 110 110 112 111 113 112 111 110 110 109 112 117 120 121 123 125 124 123 122 122 120 117 110 98 89 81 74 65 58 55 52 48 42 36 31 27 22 18 15 13 13 11 9 7 6 6 5 5 4 3 1 360 359 358 358 357 356 354 354 353 352 352 351 349 347 345 343 341
198 192 186 189 189 178 172 176 177 183 181 166 155 156 146 137 135 125 118 120 116 116 113 104 105 110 115 118 116 116 119 125 128 126 126 125 124 122 118 112 103 93 83 73 65 59 58 57 51 42 34 29 26 23 18 13 11 9 8 7 5 3 2 3 3 3 2 1 359 358 357 357 357 356 354 353 353 352 352 351 350 348 346 344 343 342
198 196 189 191 194 188 181 178 177 185 192 180 156 147 144 144 143 132 128 131 128 128 119 103 105 110 114 117 118 118 120 128 130 128 128 126 124 121 116 109 98 86 76 65 57 55 56 52 42 33 26 20 16 14 14 11 8 5 3 2 0 360 360 360 360 0 0 359 358 356 356 356 355 354 353 352 352 352 351 350 349 348 346 344 344 344
195 197 192 190 197 199 193 185 180 188 200 190 154 145 148 154 149 137 138 148 147 137 126 117 112 109 114 119 122 126 127 131 132 130 130 128 124 121 112 102 89 77 66 56 53 52 47 38 30 25 19 14 9 7 8 7 4 1 359 358 358 358 357 357 357 358 358 358 356 355 356 355 354 353 352 352 352 351 351 350 349 347 346 345 345 346
198 198 195 190 195 201 197 188 185 193 201 191 160 151 155 159 153 141 147 156 153 144 136 130 121 110 118 126 129 131 130 133 133 131 130 125 119 114 105 95 80 64 51 45 51 51 41 28 20 16 13 9 7 3 2 0 359 357 357 357 357 356 355 354 355 356 357 356 355 355 355 354 353 352 351 351 352 351 351 350 349 348 347 347 347 348
203 203 201 196 195 201 199 188 188 196 200 191 169 160 160 160 155 149 156 158 154 153 147 138 130 124 131 139 140 138 134 135 134 132 128 123 120 117 106 94 73 49 37 38 46 41 30 19 10 7 5 3 1 357 355 355 356 356 356 356 355 354 353 352 353 355 355 354 354 354 354 353 351 351 351 351 351 351 350 350 349 349 349 349 349 349
206 207 208 206 201 203 202 191 188 195 200 193 173 164 164 161 157 162 167 161 154 159 160 148 137 135 143 150 151 148 144 142 140 137 136 136 135 129 114 91 55 32 31 39 39 28 18 12 4 358 356 355 352 351 352 353 353 354 353 353 353 352 351 351 352 353 352 352 352 353 352 351 350 350 350 350 350 350 351 351 351 350 350 349 350 350
208 209 211 213 209 208 205 195 190 193 200 195 178 168 171 165 159 171 177 165 157 165 169 158 145 144 150 156 159 156 153 154 152 150 152 152 145 138 118 71 26 17 26 32 27 14 4 2 359 353 350 349 349 350 351 351 351 351 351 351 351 350 349 349 350 351 351 351 351 352 351 349 348 349 349 349 350 350 351 352 352 351 350 350 350 350
209 210 212 214 213 210 206 199 194 194 200 200 185 177 180 174 166 175 182 172 168 178 172 157 152 157 158 161 166 163 162 165 165 163 168 169 165 168 164 352 355 2 11 13 7 359 352 348 347 347 348 349 349 349 349 349 349 349 348 348 348 348 347 347 348 349 350 350 351 350 349 348 347 348 348 348 349 350 352 353 352 352 351 350 351 351
208 210 212 213 210 206 203 200 197 196 201 203 194 186 189 184 175 180 188 184 182 188 177 162 165 170 165 167 173 172 172 174 176 182 195 209 221 231 269 314 333 344 345 345 346 345 344 342 342 344 346 347 347 346 346 346 346 346 346 346 346 346 346 346 347 348 349 349 349 349 347 347 347 347 347 348 349 351 352 353 353 352 352 351 352 352
208 211 210 208 204 203 202 201 199 199 201 204 200 195 196 194 185 185 194 195 192 193 186 176 175 174 173 177 180 184 185 185 190 204 216 228 249 262 278 300 316 322 319 320 324 328 333 336 337 338 340 341 342 342 343 343 343 343 343 344 344 345 345 345 346 347 348 348 348 347 346 346 346 346 347 348 349 351 352 353 353 352 352 353 353 353
202 206 205 201 200 204 205 203 203 202 201 202 203 203 202 200 192 192 199 199 197 197 192 185 183 180 184 189 191 197 199 199 207 220 230 244 265 276 283 292 302 305 302 305 310 315 320 326 329 331 334 336 337 338 339 339 340 340 341 342 343 343 343 344 344 345 346 347 346 345 345 345 346 346 347 348 349 351 352 353 353 353 353 354 354 354
193 198 201 199 202 207 207 203 203 202 199 201 204 204 204 201 195 196 201 201 201 202 195 192 193 190 191 196 203 211 213 216 223 231 240 254 269 278 283 289 295 298 298 300 306 310 315 321 325 327 330 332 334 335 335 336 337 339 340 341 341 342 342 342 343 344 345 345 345 344 344 345 346 346 347 348 349 350 352 353 353 352 353 354 354 354
191 196 202 201 204 210 209 203 203 201 198 201 204 203 202 200 196 198 201 201 205 207 201 198 198 196 196 200 209 223 229 233 238 242 245 253 263 273 280 286 291 294 296 298 302 307 311 315 319 322 325 328 330 332 333 333 335 337 338 339 339 340 340 340 342 343 343 344 343 343 343 344 345 346 347 348 348 350 351 353 353 352 353 354 355 355
196 200 204 204 206 210 210 205 202 200 198 201 203 203 203 201 197 198 201 204 210 212 208 204 202 201 201 202 216 235 243 245 247 249 250 252 260 269 277 285 289 292 293 296 299 302 305 308 313 318 322 325 328 329 330 331 333 335 336 336 337 337 338 339 340 342 342 342 342 342 343 344 345 346 347 347 348 349 351 352 352 352 353 354 355 355
201 201 204 206 208 211 210 206 202 199 198 201 203 203 204 202 198 199 201 206 213 216 216 213 211 210 208 208 220 238 247 252 254 254 255 258 262 270 278 284 287 288 290 293 295 297 300 304 310 315 319 322 325 326 327 329 331 333 334 334 335 335 336 338 340 341 341 341 341 342 342 343 344 345 346 346 347 349 350 351 352 352 353 354 355 356
204 206 207 207 210 213 211 206 201 198 199 203 204 204 205 202 199 201 205 208 213 218 222 223 221 219 220 220 227 239 248 255 257 256 259 263 265 270 277 282 283 285 288 290 292 295 299 304 308 313 317 320 322 323 325 326 329 331 332 332 333 334 335 337 339 340 340 340 341 341 342 343 344 345 345 346 347 348 349 351 352 352 353 353 354 356
209 213 214 209 210 212 210 205 202 199 201 205 205 206 207 204 201 205 209 209 213 218 224 228 227 224 227 229 234 244 252 256 256 256 260 264 266 269 274 279 283 285 287 289 291 295 299 304 308 312 315 318 320 322 323 325 328 329 330 330 331 333 335 336 338 338 339 340 340 341 341 342 343 344 344 345 346 347 349 350 351 352 352 352 354 355
213 217 217 212 209 210 208 205 203 202 204 206 206 207 208 207 206 209 212 212 216 220 224 229 230 227 227 232 237 246 253 255 254 255 260 265 267 270 273 277 283 286 288 290 292 296 301 304 308 311 314 317 319 321 322 324 326 327 328 329 330 332 334 335 337 337 338 339 340 340 341 342 342 343 343 344 345 347 348 350 351 351 351 352 353 355
215 218 218 213 208 207 207 206 206 205 207 209 209 208 209 210 211 213 215 216 220 223 224 229 231 228 229 234 241 249 254 254 251 253 259 266 270 272 273 277 281 286 289 292 294 298 302 305 308 310 313 315 317 319 320 322 323 325 326 328 329 331 333 335 336 337 337 338 338 339 340 340 341 342 343 343 344 346 347 349 350 350 351 351 353 354
217 220 219 215 210 208 208 207 208 209 210 211 210 211 212 213 215 216 217 219 223 226 227 230 233 232 232 236 243 251 257 256 254 256 261 267 271 274 277 279 282 285 288 291 294 298 301 305 307 308 310 312 314 316 318 320 322 324 325 327 329 331 332 334 335 336 336 337 337 338 339 339 340 341 342 343 344 345 347 348 349 350 350 351 352 353
221 222 220 217 214 211 210 209 210 212 213 212 211 213 216 218 220 220 219 221 225 228 230 233 236 236 237 239 243 251 257 259 259 262 268 271 273 277 280 282 284 285 288 290 293 296 299 302 304 306 308 310 313 315 317 319 321 323 325 326 328 330 331 333 334 335 336 336 336 337 337 338 339 340 341 342 343 345 346 348 349 349 349 350 351 352
224 225 220 216 214 213 210 209 211 213 214 212 212 215 219 221 223 224 222 223 227 230 232 235 238 240 241 243 245 251 255 258 260 264 270 273 276 278 282 285 288 289 290 291 293 295 297 300 302 305 308 310 312 314 316 318 320 322 324 326 327 329 331 332 333 334 335 335 335 335 336 337 338 339 340 341 343 344 346 348 348 348 348 349 350 351
227 227 221 216 215 214 210 208 210 213 214 213 215 219 223 224 223 224 225 226 228 231 234 237 240 243 245 244 246 249 253 257 260 264 268 272 275 278 282 287 290 292 293 293 294 296 297 299 302 305 308 310 312 314 316 317 319 321 323 325 326 328 330 331 332 333 334 334 334 334 335 336 337 339 340 341 343 344 346 347 347 347 347 348 349 349
227 226 220 216 217 216 211 208 210 214 215 216 219 222 225 225 223 223 227 229 230 231 235 238 242 245 247 246 245 247 251 256 260 264 268 273 277 280 282 286 290 292 293 294 295 297 299 301 303 305 307 309 311 313 315 317 319 321 322 324 326 327 329 330 331 332 333 333 333 333 334 335 336 338 339 341 343 345 346 346 346 346 346 347 347 348
223 220 215 214 216 215 211 209 212 217 219 219 219 221 226 228 225 224 228 231 231 232 234 237 241 244 247 246 245 247 251 255 260 264 268 273 277 281 283 286 288 290 291 293 295 297 299 301 303 305 307 309 310 312 314 316 318 320 321 323 324 326 328 329 330 331 332 332 332 332 333 334 336 338 339 341 343 344 345 345 345 345 345 345 346 347
217 214 211 211 213 214 213 213 216 220 221 220 220 222 227 231 230 227 229 231 231 231 235 240 242 244 245 245 245 247 251 255 260 265 268 271 275 279 282 285 287 289 291 292 294 296 298 300 302 304 306 308 310 312 314 315 317 319 320 322 323 325 326 328 329 330 330 330 330 331 332 334 336 337 339 341 343 344 344 343 343 344 344 344 345 346
214 212 211 211 212 214 215 216 219 222 223 222 222 224 229 234 232 229 229 230 228 228 234 242 247 248 247 246 247 248 251 255 259 263 267 269 273 277 280 284 287 289 291 292 294 296 298 300 302 304 306 308 310 311 313 314 316 318 319 320 322 324 325 326 327 328 328 329 329 330 332 333 335 337 339 341 342 342 342 342 342 342 343 343 345 346
219 215 216 216 215 216 218 219 220 222 225 226 225 227 232 236 234 230 230 230 228 228 234 242 248 251 252 251 252 252 253 255 258 262 266 269 272 276 280 283 286 289 291 292 294 296 298 299 301 303 305 307 309 311 312 313 315 316 318 319 321 323 325 325 326 326 326 327 328 329 331 333 335 337 338 339 340 340 341 341 341 342 343 344 345 345
227 222 221 221 219 218 220 221 221 224 228 231 231 231 234 237 236 233 232 232 230 230 235 241 247 251 253 254 255 256 256 257 260 265 269 272 274 277 279 282 285 288 290 291 293 295 297 299 300 303 305 306 308 309 311 312 313 315 317 318 320 323 324 324 324 324 325 326 327 329 331 333 335 336 337 338 338 339 339 340 341 342 344 344 344 344
228 224 223 223 223 222 221 222 223 226 231 234 235 234 236 239 238 236 236 236 235 235 237 241 245 249 253 255 257 258 258 259 262 267 272 275 277 278 280 282 284 287 289 291 292 294 296 298 300 302 304 305 307 308 310 311 312 314 316 318 320 322 322 322 323 323 324 326 327 329 331 333 334 335 336 337 337 338 339 340 341 343 343 343 343 344
225 223 224 226 226 225 224 224 224 228 234 237 238 238 239 240 240 240 239 240 241 241 240 241 244 249 255 259 261 261 260 261 262 266 270 275 278 279 281 282 284 286 288 290 292 294 296 298 300 301 303 304 306 308 309 310 312 313 315 317 319 321 321 321 321 322 324 326 327 329 331 332 333 334 335 336 337 338 339 340 341 342 343 343 343 343
226 223 226 229 229 228 227 227 228 232 237 240 241 241 243 244 243 242 241 242 244 245 245 245 247 251 255 260 265 266 265 264 265 266 268 272 276 278 281 283 284 286 288 290 292 294 295 297 299 301 302 304 305 307 309 310 312 313 315 317 318 319 319 320 321 322 324 325 327 328 329 331 333 334 335 336 338 338 339 339 341 342 343 343 343 343
231 226 228 233 233 229 226 226 229 233 237 241 243 243 245 247 246 244 243 244 246 248 249 251 252 253 255 261 267 269 269 269 269 269 270 272 274 276 279 282 284 286 288 290 291 293 295 297 298 299 301 303 305 307 309 310 312 313 315 316 317 317 318 319 320 322 324 325 326 327 328 330 332 333 335 337 338 338 338 339 340 342 343 343 344 344
237 231 229 232 233 230 225 225 229 233 235 239 242 243 243 245 247 247 247 247 249 251 252 254 255 256 258 262 265 267 268 269 270 271 273 274 275 277 279 281 284 286 288 289 291 292 294 296 297 299 301 303 305 307 309 312 314 315 315 315 315 316 317 319 321 322 323 324 325 326 328 330 331 333 335 337 338 338 338 339 340 342 343 344 345 345
244 237 231 230 231 230 228 228 232 235 235 236 239 241 243 245 248 250 251 252 253 254 256 256 257 258 260 262 263 265 265 266 268 270 272 273 275 277 279 281 283 285 287 288 290 292 294 296 297 299 300 302 305 309 312 315 316 316 314 314 314 316 318 320 321 323 323 323 324 326 328 330 331 333 335 336 337 338 338 339 340 341 342 343 345 345
248 241 234 231 231 231 231 231 233 234 234 235 237 240 244 248 252 255 256 256 257 258 259 259 260 261 262 263 264 265 265 266 268 269 271 273 275 276 278 280 283 285 287 288 290 292 294 296 298 300 301 304 306 309 312 314 315 314 313 313 315 317 319 320 322 322 323 323 324 326 328 330 331 332 334 335 336 337 338 338 339 340 341 342 343 344
252 245 237 232 232 233 234 234 234 234 234 236 239 243 247 252 256 258 258 257 257 259 261 263 263 264 264 265 266 267 268 268 269 270 272 273 275 276 278 281 284 286 289 290 291 293 295 298 300 301 303 305 307 308 310 312 312 312 312 314 316 318 319 320 321 322 322 323 324 325 328 329 330 331 332 333 335 336 337 338 338 339 340 340 342 343
254 250 243 236 235 236 236 237 238 240 240 243 246 248 252 256 258 259 259 259 259 261 265 268 269 268 267 267 267 268 269 270 271 272 273 274 275 276 278 281 284 287 289 290 292 294 296 298 300 301 303 305 307 308 309 309 310 310 312 314 316 318 319 320 321 322 322 322 323 325 327 328 329 329 330 332 334 336 337 337 338 338 338 339 340 341
253 250 247 243 240 238 238 240 244 246 247 250 252 253 255 257 259 262 264 264 265 267 269 271 272 271 270 270 270 270 271 271 272 273 274 275 276 278 279 280 283 287 289 289 291 293 295 297 298 300 303 305 307 308 308 308 309 310 313 315 317 318 319 320 321 321 322 322 322 323 324 326 326 327 328 331 333 335 336 336 336 336 337 337 338 339
Height
10715 10716 10716 10717 10718 10719 10720 10719 10719 10719 10719 10720 10719 10719 10720 10720 10720 10720 10721 10721 10721 10721 10722 10722 10722 10722 10723 10723 10724 10725 10726 10727 10727 10727 10727 10727 10727 10726 10726 10726 10726 10726 10726 10726 10726 10726 10726 10725 10725 10725 10724 10724 10723 10723 10722 10722 10721 10720 10719 10718 10716 10715 10713 10711 10710 10708 10706 10704 10702 10700 10698 10695 10692 10689 10687 10683 10680 10677 10673 10669 10666 10663 10659 10656 10652 10649
10715 10716 10716 10717 10718 10719 10720 10720 10719 10720 10720 10720 10719 10719 10720 10721 10722 10722 10722 10722 10722 10722 10722 10722 10723 10723 10724 10724 10725 10725 10726 10726 10727 10727 10727 10727 10727 10727 10727 10727 10726 10726 10726 10726 10726 10726 10726 10726 10726 10725 10725 10724 10724 10723 10723 10722 10721 10720 10719 10718 10716 10714 10713 10711 10710 10708 10706 10704 10702 10699 10696 10693 10690 10687 10684 10681 10678 10674 10671 10668 10664 10661 10657 10654 10650 10646
10715 10716 10717 10718 10719 10719 10720 10720 10719 10720 10720 10720 10720 10720 10722 10723 10723 10723 10723 10723 10723 10722 10723 10723 10723 10724 10724 10724 10725 10725 10726 10726 10726 10726 10726 10727 10727 10727 10727 10727 10727 10727 10727 10727 10727 10727 10727 10727 10727 10726 10726 10725 10725 10724 10723 10723 10722 10720 10719 10717 10716 10715 10713 10711 10709 10707 10705 10703 10700 10697 10695 10692 10689 10686 10683 10680 10677 10674 10671 10667 10664 10660 10656 10652 10648 10644
10715 10717 10718 10718 10719 10719 10720 10720 10720 10720 10720 10721 10721 10722 10723 10724 10724 10723 10723 10723 10723 10723 10723 10723 10724 10724 10724 10725 10725 10725 10726 10726 10726 10726 10726 10727 10727 10728 10728 10728 10728 10727 10727 10727 10728 10728 10728 10728 10728 10727 10727 10726 10726 10725 10724 10723 10722 10720 10719 10718 10716 10715 10713 10711 10709 10706 10704 10702 10699 10696 10693 10691 10688 10685 10683 10680 10676 10673 10669 10665 10661 10657 10653 10649 10645 10641
10716 10717 10719 10719 10719 10720 10720 10720 10720 10721 10721 10721 10722 10723 10724 10725 10725 10724 10724 10724 10724 10724 10724 10724 10724 10724 10725 10725 10725 10725 10725 10726 10726 10726 10727 10727 10728 10728 10728 10729 10728 10728 10728 10729 10729 10729 10729 10729 10728 10728 10728 10727 10726 10725 10724 10723 10722 10721 10720 10718 10717 10715 10713 10711 10709 10707 10704 10702 10699 10697 10694 10691 10688 10685 10681 10677 10673 10669 10665 10661 10657 10653 10649 10645 10641 10637
10716 10718 10719 10719 10720 10721 10721 10720 10721 10721 10721 10722 10723 10724 10725 10726 10725 10725 10724 10724 10724 10724 10724 10724 10724 10725 10725 10725 10725 10725 10726 10726 10726 10726 10727 10728 10729 10729 10729 10729 10729 10729 10730 10730 10730 10730 10730 10730 10729 10729 10728 10728 10727 10726 10725 10724 10723 10721 10720 10718 10716 10714 10712 10711 10708 10706 10704 10702 10699 10696 10693 10690 10686 10682 10678 10674 10669 10665 10661 10657 10654 10650 10646 10642 10638 10634
10715 10717 10719 10720 10721 10721 10721 10721 10721 10722 10722 10723 10724 10725 10725 10726 10726 10725 10725 10724 10724 10724 10724 10724 10725 10725 10726 10725 10725 10726 10726 10726 10726 10727 10728 10729 10730 10730 10730 10730 10731 10731 10731 10731 10731 10731 10731 10730 10730 10729 10729 10728 10727 10727 10725 10724 10723 10721 10720 10718 10716 10714 10712 10710 10708 10706 10703 10700 10697 10694 10691 10687 10684 10680 10676 10672 10668 10664 10660 10656 10652 10649 10644 10640 10635 10631
10715 10717 10719 10720 10720 10721 10721 10721 10722 10723 10723 10724 10724 10725 10725 10726 10726 10726 10725 10725 10725 10725 10725 10725 10725 10726 10727 10727 10726 10727 10727 10727 10728 10728 10729 10730 10730 10731 10731 10732 10732 10732 10732 10732 10732 10732 10731 10731 10730 10730 10729 10729 10728 10727 10726 10724 10723 10721 10720 10718 10716 10714 10712 10709 10707 10704 10702 10699 10696 10693 10690 10686 10682 10678 10675 10671 10667 10663 10659 10655 10651 10646 10642 10637 10632 10627
10715 10717 10719 10719 10720 10720 10720 10721 10723 10723 10724 10724 10725 10725 10726 10726 10726 10726 10726 10727 10727 10726 10727 10727 10726 10727 10729 10728 10728 10728 10728 10729 10729 10730 10731 10731 10732 10732 10733 10733 10733 10733 10733 10733 10733 10732 10732 10732 10731 10731 10730 10729 10728 10727 10726 10724 10723 10721 10719 10718 10716 10713 10711 10708 10706 10703 10701 10698 10696 10693 10689 10686 10682 10678 10674 10670 10666 10662 10658 10653 10648 10643 10638 10632 10627 10623
10714 10717 10719 10719 10720 10720 10721 10722 10723 10723 10724 10724 10725 10725 10725 10725 10726 10727 10727 10728 10728 10728 10728 10728 10728 10728 10730 10730 10730 10730 10730 10730 10731 10732 10732 10733 10733 10733 10734 10734 10734 10734 10734 10734 10734 10733 10733 10732 10732 10731 10730 10730 10729 10727 10726 10724 10723 10721 10719 10717 10715 10713 10710 10708 10706 10703 10701 10698 10695 10692 10688 10685 10681 10677 10673 10668 10664 10659 10655 10650 10645 10639 10634 10629 10624 10619
10714 10716 10719 10719 10720 10721 10722 10722 10723 10723 10723 10723 10724 10725 10725 10726 10726 10727 10728 10729 10730 10730 10729 10729 10729 10730 10731 10731 10731 10731 10731 10732 10733 10733 10733 10734 10734 10735 10735 10735 10736 10736 10735 10735 10735 10734 10734 10733 10732 10732 10731 10730 10729 10727 10726 10724 10723 10721 10719 10717 10714 10712 10710 10708 10706 10703 10700 10697 10694 10690 10687 10683 10679 10675 10671 10666 10661 10656 10651 10646 10641 10636 10631 10626 10620 10615
10714 10717 10719 10719 10720 10721 10722 10722 10722 10723 10723 10723 10723 10725 10725 10727 10728 10728 10729 10730 10730 10731 10731 10731 10731 10731 10732 10733 10733 10733 10733 10733 10734 10734 10735 10735 10735 10736 10736 10737 10737 10737 10736 10736 10735 10735 10734 10734 10733 10732 10731 10730 10729 10727 10726 10724 10722 10720 10718 10716 10714 10712 10710 10708 10705 10702 10699 10696 10693 10690 10686 10682 10678 10673 10669 10664 10659 10654 10649 10644 10639 10634 10628 10622 10617 10611
10714 10716 10718 10719 10719 10720 10721 10722 10722 10723 10723 10722 10723 10724 10726 10728 10729 10729 10730 10731 10731 10732 10732 10732 10732 10733 10733 10734 10734 10734 10734 10735 10735 10736 10736 10736 10737 10737 10738 10738 10738 10738 10737 10737 10737 10736 10735 10735 10734 10733 10732 10730 10729 10728 10726 10724 10722 10720 10718 10716 10714 10713 10710 10707 10705 10702 10699 10695 10692 10689 10685 10681 10676 10672 10668 10663 10658 10653 10648 10642 10637 10632 10626 10620 10614 10608
10713 10715 10717 10718 10718 10719 10721 10722 10722 10722 10722 10722 10723 10725 10727 10728 10729 10730 10731 10732 10732 10733 10733 10733 10733 10734 10735 10735 10736 10736 10736 10736 10737 10737 10738 10738 10738 10738 10739 10739 10739 10739 10738 10738 10737 10737 10736 10735 10734 10733 10732 10730 10728 10727 10726 10724 10722 10720 10718 10717 10715 10712 10710 10707 10704 10701 10698 10695 10691 10688 10683 10679 10675 10670 10666 10661 10656 10651 10645 10640 10635 10629 10623 10617 10610 10604
10711 10713 10716 10717 10717 10718 10720 10721 10722 10721 10722 10724 10725 10726 10727 10729 10729 10730 10731 10732 10733 10734 10734 10735 10735 10735 10736 10736 10737 10737 10738 10738 10739 10739 10739 10739 10740 10739 10740 10740 10740 10740 10739 10739 10738 10737 10736 10735 10734 10733 10732 10730 10728 10726 10725 10724 10722 10721 10719 10717 10714 10712 10709 10706 10704 10700 10697 10693 10690 10686 10681 10677 10673 10669 10665 10660 10654 10648 10643 10637 10632 10626 10619 10612 10605 10598
10711 10712 10715 10717 10717 10717 10718 10720 10722 10722 10723 10725 10726 10727 10728 10730 10730 10730 10731 10733 10734 10734 10735 10736 10736 10736 10737 10738 10739 10739 10740 10740 10740 10740 10741 10741 10741 10741 10741 10741 10741 10740 10740 10739 10739 10738 10737 10736 10735 10734 10733 10731 10729 10727 10725 10724 10723 10721 10719 10716 10713 10711 10708 10706 10702 10699 10695 10692 10688 10684 10679 10675 10671 10667 10662 10657 10651 10646 10640 10635 10629 10622 10615 10607 10600 10592
10710 10712 10714 10716 10717 10717 10719 10720 10722 10723 10724 10726 10727 10727 10729 10730 10731 10731 10732 10733 10734 10735 10736 10737 10737 10737 10738 10739 10740 10741 10741 10741 10741 10742 10742 10742 10742 10742 10742 10742 10741 10741 10740 10740 10739 10738 10737 10736 10735 10734 10733 10732 10730 10729 10727 10725 10723 10720 10718 10715 10712 10710 10707 10704 10701 10697 10694 10690 10686 10682 10678 10673 10669 10664 10659 10654 10649 10643 10638 10632 10625 10617 10610 10602 10595 10588
10709 10711 10713 10715 10716 10717 10719 10721 10723 10724 10725 10726 10728 10729 10729 10730 10731 10732 10733 10733 10734 10736 10737 10737 10737 10738 10739 10740 10740 10741 10742 10742 10742 10742 10743 10743 10743 10743 10743 10742 10742 10742 10741 10740 10739 10738 10738 10737 10735 10734 10733 10732 10730 10729 10726 10724 10722 10719 10717 10714 10711 10709 10706 10703 10699 10696 10692 10689 10685 10680 10676 10671 10667 10663 10657 10652 10647 10641 10635 10628 10620 10613 10606 10598 10591 10584
10708 10710 10712 10714 10716 10718 10720 10721 10723 10724 10726 10727 10728 10729 10730 10730 10731 10732 10734 10734 10735 10736 10737 10737 10738 10738 10739 10740 10741 10741 10742 10743 10743 10743 10743 10743 10743 10743 10743 10742 10742 10742 10741 10740 10739 10739 10738 10737 10736 10735 10733 10731 10729 10727 10725 10723 10721 10718 10716 10713 10711 10708 10705 10702 10698 10695 10691 10687 10683 10678 10674 10670 10666 10661 10655 10650 10645 10638 10631 10625 10618 10610 10603 10595 10588 10581
10707 10709 10711 10713 10715 10717 10719 10721 10723 10724 10726 10727 10729 10730 10730 10731 10731 10732 10734 10735 10736 10737 10737 10738 10739 10739 10739 10740 10740 10741 10742 10743 10743 10743 10743 10743 10743 10743 10742 10742 10742 10741 10741 10740 10739 10739 10738 10737 10736 10735 10733 10731 10729 10726 10724 10722 10720 10718 10715 10712 10710 10707 10704 10701 10697 10694 10690 10685 10681 10677 10673 10669 10664 10659 10654 10648 10642 10636 10629 10622 10615 10608 10600 10592 10585 10578
10705 10707 10709 10711 10713 10715 10718 10720 10721 10723 10725 10726 10728 10729 10731 10732 10732 10733 10734 10735 10736 10737 10738 10739 10739 10739 10739 10740 10740 10741 10742 10742 10743 10743 10743 10743 10743 10743 10742 10742 10741 10741 10740 10740 10740 10739 10738 10736 10735 10734 10732 10731 10729 10726 10724 10722 10720 10717 10715 10712 10709 10706 10703 10699 10696 10692 10688 10683 10679 10675 10672 10667 10662 10657 10652 10646 10640 10633 10626 10619 10612 10605 10598 10590 10582 10575
10703 10705 10707 10709 10712 10714 10715 10717 10719 10721 10723 10725 10727 10729 10730 10732 10733 10734 10734 10735 10736 10738 10739 10739 10739 10740 10740 10740 10740 10741 10741 10742 10743 10743 10743 10743 10743 10742 10742 10742 10741 10740 10740 10740 10740 10739 10738 10737 10735 10733 10732 10731 10729 10726 10724 10721 10719 10717 10714 10711 10708 10705 10701 10698 10694 10690 10686 10682 10678 10674 10670 10666 10661 10655 10650 10643 10637 10630 10623 10617 10610 10603 10596 10588 10580 10573
10699 10702 10705 10708 10710 10711 10712 10715 10717 10719 10721 10724 10726 10728 10730 10732 10733 10734 10735 10736 10737 10738 10739 10739 10739 10740 10740 10740 10740 10741 10741 10742 10742 10742 10742 10742 10742 10742 10741 10741 10741 10740 10740 10740 10739 10739 10738 10737 10735 10733 10732 10730 10728 10725 10723 10721 10718 10716 10713 10710 10706 10703 10699 10696 10692 10688 10684 10680 10677 10673 10669 10664 10659 10653 10647 10641 10635 10628 10621 10614 10608 10601 10595 10587 10580 10572
10697 10700 10703 10706 10708 10708 10710 10713 10716 10718 10720 10722 10724 10726 10728 10730 10732 10733 10734 10735 10737 10737 10739 10739 10740 10740 10740 10740 10740 10740 10741 10741 10741 10741 10741 10741 10741 10741 10741 10740 10740 10740 10739 10739 10738 10737 10736 10735 10734 10732 10730 10728 10726 10724 10722 10719 10717 10714 10711 10708 10704 10701 10697 10694 10690 10687 10683 10679 10676 10672 10667 10662 10657 10651 10645 10639 10632 10626 10620 10613 10606 10600 10593 10586 10579 10571
10697 10699 10701 10704 10706 10707 10710 10712 10714 10716 10718 10720 10722 10724 10727 10729 10731 10732 10733 10735 10736 10737 10738 10739 10740 10739 10740 10740 10740 10740 10741 10741 10741 10740 10740 10741 10741 10741 10740 10740 10740 10739 10739 10738 10737 10736 10735 10733 10732 10731 10729 10727 10724 10722 10720 10717 10715 10712 10709 10706 10703 10699 10696 10692 10689 10685 10682 10678 10674 10670 10665 10660 10655 10649 10643 10637 10630 10624 10618 10612 10606 10599 10592 10586 10579 10571
10696 10698 10700 10702 10704 10706 10708 10710 10711 10713 10716 10718 10720 10723 10726 10727 10729 10731 10733 10735 10735 10736 10737 10738 10739 10739 10739 10740 10740 10740 10740 10740 10740 10740 10740 10740 10740 10740 10740 10739 10739 10739 10738 10737 10736 10736 10734 10733 10731 10730 10728 10725 10723 10721 10718 10715 10713 10710 10707 10704 10701 10698 10695 10691 10688 10684 10680 10676 10672 10668 10663 10658 10652 10646 10641 10635 10629 10623 10617 10611 10605 10598 10592 10585 10579 10571
10696 10697 10698 10700 10702 10703 10706 10708 10710 10712 10715 10717 10719 10722 10724 10726 10729 10731 10733 10734 10735 10735 10737 10737 10738 10738 10739 10739 10739 10739 10739 10739 10739 10739 10739 10739 10739 10739 10739 10739 10738 10738 10737 10737 10736 10735 10734 10732 10730 10728 10727 10725 10722 10720 10717 10715 10712 10709 10706 10703 10700 10697 10693 10690 10686 10682 10678 10674 10670 10666 10661 10656 10650 10645 10639 10634 10628 10622 10616 10610 10604 10597 10591 10585 10578 10571
10694 10695 10696 10697 10699 10701 10703 10706 10708 10711 10714 10715 10718 10720 10723 10725 10728 10730 10731 10733 10734 10735 10736 10736 10737 10738 10738 10738 10738 10739 10738 10738 10739 10739 10739 10738 10738 10738 10738 10738 10737 10737 10736 10736 10735 10734 10732 10730 10729 10727 10725 10723 10721 10719 10716 10713 10710 10707 10704 10701 10698 10695 10692 10688 10684 10680 10677 10673 10668 10664 10659 10654 10648 10643 10638 10632 10627 10621 10615 10609 10602 10596 10590 10584 10578 10571
10692 10692 10693 10695 10697 10699 10701 10703 10706 10709 10712 10714 10716 10719 10722 10724 10727 10728 10729 10731 10733 10734 10735 10735 10736 10737 10737 10737 10737 10737 10737 10737 10737 10738 10738 10736 10736 10737 10737 10736 10736 10736 10735 10734 10734 10732 10731 10729 10727 10726 10724 10721 10719 10717 10714 10711 10708 10705 10702 10699 10696 10693 10690 10686 10683 10679 10675 10671 10666 10662 10657 10652 10647 10641 10636 10630 10625 10619 10613 10608 10602 10595 10589 10583 10577 10571
10690 10690 10691 10693 10695 10697 10699 10701 10704 10708 10710 10713 10715 10718 10721 10724 10725 10727 10728 10730 10731 10732 10733 10733 10734 10735 10735 10735 10736 10735 10735 10735 10736 10736 10736 10735 10735 10736 10736 10735 10734 10734 10733 10732 10732 10730 10729 10727 10725 10724 10722 10720 10717 10715 10712 10709 10706 10703 10700 10697 10694 10691 10688 10685 10681 10677 10673 10669 10664 10660 10655 10650 10645 10639 10633 10628 10622 10617 10612 10607 10601 10595 10589 10582 10576 10569
10687 10688 10689 10691 10693 10695 10697 10700 10703 10707 10709 10712 10714 10717 10720 10722 10724 10725 10726 10728 10729 10730 10730 10731 10732 10733 10734 10734 10734 10734 10733 10734 10734 10735 10735 10733 10734 10735 10735 10733 10732 10732 10731 10730 10729 10728 10727 10725 10724 10722 10720 10718 10715 10713 10710 10707 10704 10702 10699 10695 10692 10689 10686 10683 10679 10675 10671 10667 10662 10658 10653 10648 10643 10637 10632 10626 10621 10616 10611 10606 10601 10595 10589 10582 10575 10568
10685 10685 10687 10689 10691 10694 10696 10699 10702 10704 10707 10710 10712 10715 10718 10720 10721 10723 10724 10726 10727 10728 10728 10729 10730 10731 10732 10732 10732 10732 10731 10731 10732 10733 10732 10731 10732 10733 10733 10732 10731 10730 10729 10728 10727 10726 10725 10723 10722 10720 10718 10716 10714 10711 10708 10705 10702 10699 10697 10693 10690 10687 10684 10681 10677 10673 10669 10665 10660 10656 10651 10646 10641 10635 10630 10624 10619 10614 10609 10604 10599 10594 10588 10581 10575 10568
10683 10684 10685 10688 10690 10692 10694 10697 10699 10701 10704 10708 10711 10714 10716 10718 10719 10721 10722 10724 10725 10726 10727 10727 10728 10729 10729 10730 10730 10730 10729 10729 10729 10730 10729 10729 10730 10731 10730 10730 10729 10728 10727 10726 10725 10724 10723 10721 10720 10718 10716 10713 10711 10709 10706 10703 10700 10697 10694 10691 10688 10685 10682 10679 10675 10672 10668 10663 10659 10654 10649 10644 10639 10633 10628 10622 10617 10613 10608 10602 10597 10591 10586 10580 10574 10568
10681 10682 10683 10686 10688 10690 10691 10694 10696 10699 10703 10706 10709 10712 10714 10715 10716 10718 10720 10722 10723 10724 10725 10725 10726 10727 10727 10728 10728 10728 10727 10727 10727 10727 10727 10726 10727 10728 10727 10727 10726 10726 10725 10724 10723 10721 10720 10718 10717 10715 10713 10711 10708 10706 10703 10700 10698 10695 10692 10689 10686 10683 10679 10676 10673 10669 10666 10661 10657 10652 10647 10642 10637 10632 10626 10621 10616 10611 10606 10601 10595 10589 10583 10577 10571 10566
10678 10680 10682 10684 10685 10687 10689 10692 10694 10697 10701 10704 10706 10709 10711 10712 10714 10715 10718 10720 10721 10722 10722 10723 10724 10724 10725 10726 10726 10726 10725 10724 10725 10725 10725 10724 10724 10725 10724 10724 10723 10723 10722 10721 10720 10718 10717 10715 10714 10712 10710 10708 10705 10703 10701 10698 10695 10692 10689 10686 10683 10680 10677 10674 10670 10667 10663 10659 10655 10650 10645 10640 10635 10630 10625 10620 10615 10610 10605 10599 10594 10588 10582 10576 10570 10564
10677 10678 10680 10682 10684 10686 10688 10691 10693 10696 10699 10701 10704 10706 10708 10710 10712 10714 10715 10717 10718 10719 10720 10720 10721 10722 10723 10724 10724 10724 10723 10722 10722 10723 10723 10722 10722 10721 10721 10721 10720 10720 10719 10718 10717 10716 10714 10712 10711 10709 10708 10706 10703 10701 10698 10695 10693 10690 10687 10684 10681 10678 10675 10671 10668 10664 10660 10656 10652 10648 10643 10638 10633 10628 10623 10618 10614 10608 10603 10598 10592 10586 10581 10575 10569 10563
10675 10676 10679 10681 10683 10685 10687 10690 10692 10694 10696 10698 10701 10704 10705 10707 10709 10712 10713 10714 10714 10715 10717 10718 10719 10719 10720 10721 10722 10721 10721 10720 10720 10721 10721 10720 10720 10719 10719 10718 10718 10717 10716 10715 10714 10713 10711 10710 10708 10706 10705 10703 10701 10698 10695 10693 10690 10687 10684 10681 10678 10675 10672 10669 10665 10661 10657 10653 10649 10645 10640 10636 10631 10626 10622 10617 10612 10607 10602 10597 10591 10586 10580 10574 10568 10563
10674 10675 10678 10680 10681 10683 10686 10688 10689 10691 10693 10696 10699 10701 10703 10705 10707 10709 10711 10711 10711 10712 10714 10715 10716 10717 10718 10719 10719 10719 10719 10718 10719 10719 10719 10719 10718 10717 10717 10716 10715 10714 10713 10712 10711 10710 10708 10707 10705 10703 10701 10700 10698 10695 10692 10690 10687 10684 10681 10679 10676 10673 10670 10666 10662 10659 10654 10650 10646 10642 10638 10633 10629 10624 10620 10616 10611 10607 10602 10597 10592 10586 10581 10575 10570 10565
10673 10674 10676 10677 10679 10681 10683 10685 10687 10688 10691 10693 10696 10699 10700 10702 10704 10706 10707 10708 10709 10710 10711 10712 10713 10714 10715 10716 10716 10717 10716 10716 10717 10717 10717 10716 10716 10715 10714 10713 10712 10711 10710 10709 10708 10707 10705 10704 10702 10700 10698 10696 10694 10692 10689 10687 10684 10681 10679 10676 10673 10670 10667 10663 10660 10656 10651 10647 10643 10639 10635 10631 10627 10622 10618 10614 10610 10605 10601 10596 10591 10587 10582 10577 10571 10566
10671 10673 10674 10675 10677 10678 10680 10682 10685 10687 10688 10691 10694 10696 10697 10698 10700 10702 10704 10705 10707 10708 10709 10709 10709 10710 10711 10712 10713 10713 10713 10713 10714 10714 10713 10713 10713 10712 10711 10710 10709 10708 10707 10706 10705 10703 10702 10701 10699 10697 10695 10693 10691 10689 10686 10684 10681 10679 10676 10673 10670 10667 10664 10661 10657 10653 10648 10644 10640 10636 10632 10628 10624 10621 10616 10612 10608 10604 10600 10595 10591 10586 10581 10576 10571 10566
10670 10672 10673 10674 10676 10677 10678 10680 10682 10685 10686 10688 10691 10693 10694 10695 10697 10699 10701 10702 10704 10706 10706 10706 10707 10707 10707 10709 10709 10709 10709 10710 10711 10710 10709 10709 10710 10709 10708 10707 10706 10705 10704 10703 10701 10700 10699 10697 10696 10694 10691 10689 10687 10685 10683 10681 10678 10676 10673 10670 10667 10664 10661 10657 10654 10649 10645 10641 10637 10634 10630 10626 10622 10618 10614 10610 10606 10602 10597 10593 10589 10584 10579 10574 10569 10565
10668 10670 10671 10672 10674 10675 10677 10678 10681 10683 10684 10685 10687 10690 10691 10692 10694 10696 10697 10698 10700 10702 10703 10703 10704 10703 10704 10705 10705 10704 10705 10706 10707 10706 10705 10705 10706 10705 10705 10704 10703 10702 10700 10699 10698 10696 10695 10694 10692 10690 10688 10686 10684 10682 10680 10677 10675 10672 10670 10667 10664 10661 10658 10654 10650 10646 10642 10638 10634 10630 10627 10624 10620 10616 10612 10607 10603 10599 10594 10590 10586 10582 10577 10572 10567 10562
10665 10667 10668 10669 10671 10673 10675 10677 10679 10680 10680 10681 10684 10686 10688 10690 10692 10693 10694 10695 10696 10698 10699 10700 10700 10700 10701 10702 10700 10700 10700 10702 10703 10703 10702 10702 10702 10701 10701 10700 10699 10698 10697 10695 10694 10692 10691 10689 10688 10686 10685 10682 10680 10678 10676 10674 10671 10669 10666 10664 10661 10657 10654 10650 10646 10642 10638 10635 10631 10627 10624 10621 10617 10613 10609 10605 10600 10596 10591 10587 10583 10579 10575 10570 10564 10559
10663 10664 10665 10666 10668 10671 10673 10675 10677 10677 10677 10678 10681 10683 10685 10688 10689 10689 10690 10691 10692 10693 10695 10696 10696 10697 10698 10698 10697 10696 10696 10697 10698 10699 10699 10699 10698 10697 10696 10696 10695 10694 10692 10691 10689 10688 10686 10685 10684 10682 10680 10678 10676 10674 10672 10670 10667 10665 10663 10660 10657 10653 10650 10646 10643 10639 10635 10632 10628 10624 10621 10618 10615 10611 10606 10602 10598 10593 10589 10584 10580 10576 10571 10566 10561 10556
10660 10661 10662 10664 10667 10670 10672 10673 10674 10675 10675 10676 10678 10681 10683 10685 10685 10685 10686 10687 10688 10689 10691 10691 10692 10693 10694 10694 10693 10693 10693 10692 10693 10693 10694 10694 10694 10693 10693 10692 10691 10689 10688 10687 10685 10684 10682 10681 10679 10678 10676 10674 10672 10670 10668 10666 10663 10661 10658 10656 10652 10649 10646 10643 10639 10636 10632 10628 10625 10622 10618 10615 10612 10608 10604 10600 10595 10591 10586 10582 10577 10573 10568 10563 10558 10553
10657 10659 10660 10662 10665 10668 10670 10671 10672 10673 10674 10674 10675 10677 10679 10680 10681 10682 10683 10684 10685 10686 10687 10687 10688 10688 10689 10690 10689 10689 10689 10688 10688 10688 10689 10689 10689 10689 10688 10687 10686 10685 10684 10682 10681 10680 10678 10677 10675 10673 10672 10670 10668 10666 10664 10661 10659 10657 10654 10651 10648 10645 10642 10639 10636 10632 10629 10625 10622 10618 10615 10612 10609 10605 10601 10597 10593 10588 10584 10579 10575 10570 10565 10560 10556 10551
10655 10657 10658 10660 10662 10665 10667 10669 10670 10671 10671 10672 10672 10673 10675 10676 10677 10679 10680 10681 10682 10682 10682 10683 10684 10684 10685 10685 10685 10685 10684 10684 10684 10684 10684 10684 10684 10683 10683 10682 10682 10681 10680 10678 10677 10675 10674 10672 10671 10669 10667 10665 10663 10661 10659 10657 10655 10652 10649 10647 10644 10641 10639 10636 10632 10629 10625 10622 10618 10615 10612 10608 10604 10601 10598 10594 10590 10586 10581 10577 10572 10568 10563 10558 10553 10548
10654 10655 10656 10658 10660 10662 10664 10666 10667 10668 10668 10668 10669 10670 10672 10673 10675 10677 10678 10678 10678 10678 10678 10678 10679 10680 10681 10681 10681 10681 10680 10680 10680 10680 10680 10679 10679 10679 10678 10678 10677 10676 10675 10674 10672 10671 10670 10668 10666 10665 10663 10661 10659 10657 10655 10653 10650 10647 10645 10642 10640 10638 10635 10632 10629 10625 10622 10618 10615 10612 10609 10605 10601 10597 10594 10591 10587 10583 10578 10574 10570 10565 10561 10556 10551 10545
10652 10653 10655 10656 10658 10659 10661 10663 10664 10665 10665 10666 10667 10669 10671 10673 10674 10675 10675 10675 10675 10674 10674 10674 10674 10675 10676 10677 10677 10676 10676 10675 10675 10675 10675 10675 10675 10674 10674 10673 10672 10672 10671 10669 10668 10667 10665 10663 10662 10660 10659 10657 10655 10653 10651 10648 10645 10643 10640 10638 10636 10633 10631 10628 10625 10622 10618 10615 10611 10608 10605 10602 10598 10595 10591 10588 10584 10580 10576 10571 10567 10563 10558 10554 10549 10544
10650 10652 10653 10654 10656 10658 10659 10660 10661 10663 10663 10664 10665 10668 10670 10671 10671 10671 10671 10671 10671 10671 10671 10670 10670 10671 10672 10673 10673 10672 10671 10671 10671 10671 10671 10670 10670 10670 10669 10668 10668 10667 10666 10665 10663 10662 10661 10659 10658 10656 10655 10653 10651 10649 10647 10644 10641 10638 10636 10634 10632 10629 10626 10623 10621 10618 10614 10611 10607 10604 10601 10598 10595 10592 10588 10585 10581 10577 10573 10569 10564 10560 10556 10552 10547 10542
10649 10651 10652 10653 10654 10656 10657 10658 10659 10660 10661 10662 10663 10665 10667 10667 10668 10668 10668 10668 10668 10668 10668 10667 10667 10666 10667 10668 10668 10668 10666 10666 10666 10667 10666 10666 10666 10665 10664 10664 10663 10662 10662 10660 10659 10657 10656 10655 10653 10652 10651 10649 10647 10645 10642 10639 10636 10634 10632 10630 10627 10625 10622 10619 10616 10614 10610 10607 10604 10600 10597 10594 10591 10588 10585 10581 10578 10574 10570 10566 10561 10557 10553 10549 10545 10540